星链-4662 (STARLINK-4662 )

导读

STARLINK-4662是美国SpaceX公司星链星座中的一颗卫星,于2022年9月5日发射入轨,属于星链低轨互联网星座组网卫星。星链系统旨在为全球提供高速宽带互联网服务,该卫星承担着补充星座网络覆盖、提升服务容量与稳定性的作用,依托低轨部署降低通信时延,推动全球互联覆盖的实现。

Basic Information
目录编号:
53738
目录名称:
STARLINK-4662
国际标识:
2022-107AQ
轨道中心:
EARTH
卫星名称:
星链-4662
卫星全名:
星链-4662 (STARLINK-4662 )
卫星状态:
在轨 (已飞行1381 天)
发射日期:
2022-09-05 UTC
国别 :
美国 (US)
星等 :
--
Orbit Information
数据来源 国际轨道数据 AOE轨道数据
星历时间 2026-06-17T02:21:48+0800
15小时前
查看轨道信息
2026-06-16T06:00:00+0800
1天前
查看轨道信息
半长轴 6917.769km 6917.924km
偏心率 0.0000948 0.000205
轨道倾角 53.159° 53.159°
近地点辐角 73.946° 42.797°
升交点赤经 179.035° 182.855°
平近点角 286.163° 25.743°
近地点 538.976km 538.368km
远地点 540.288km 541.206km
周期 95.435分钟 95.438分钟
每日圈数 15.088766 15.08826
Detailed Information
固有亮度:
5
最大亮度:
2.5
卫星平台:
Starlink v1.5
覆盖范围:
全球
运营商:
太空探索技术公司
运营商所在国:
美国
制造商(研发单位):
太空探索技术公司
制造商所在国:
美国
使用方式:
暂无
Satellite Introduction
星链(Starlink)计划是由太空探索技术公司(SpaceX)提出的一个巨型低轨卫星互联网星座项目,计划在2019年至2024年间在太空搭建由约1.2万颗卫星组成的“星链”网络,其中1584颗将部署在地球上空550千米处的近地轨道,并从2020年开始工作。该卫星仍在工作。
2D Orbit Map
3D Orbit Map
Orbit Altitude Analysis Chart
Orbit Inclination Analysis Chart
Orbit Comprehensive Analysis Chart
View Comprehensive Chart